Location: Unspecified
(47.9110°N, 14.3980°E)
Time: 21:28:12
(UTC+00:00)

Lacrosse 4 Rocket - Pass Details

Date: 06 August 2020
Orbit: 544 x 615 km, 68.0° (Epoch: 22 September)

Event Time Altitude Azimuth Distance (km) Brightness Sun altitude
Exits shadow 22:36:41 20° 73° (ENE) 1,363 3.4 -25.3°
Drops below altitude 10° 22:38:26 10° 54° (NE) 1,886 4.4 -25.4°
Sets 22:40:52 0° 42° (NE) 2,776 5.5 -25.4°
